Theta_e
295 296 296 295 291 291 292 291 292 296 301 299 298 297 298 299 295 293 299 309 309 313 318 319 320 320 319 320 322 322 324 326 327 327 325 326 327 329 330 331 332 332 334 336 338 339 340 342 343 343 344 344 346 348 348 348 350 350 351 350 349 349 348 348 348 348 350 350 351 351 352 351 351 351 349 349 349 348 349 349 348 349 349 348 348 347 349
295 295 297 297 293 291 291 292 292 294 301 303 302 303 303 301 298 300 308 310 312 316 319 321 320 321 321 321 322 322 322 322 322 323 324 325 326 328 329 331 332 333 334 335 335 336 338 340 340 341 341 341 343 344 346 346 346 348 347 345 344 343 343 344 346 348 348 347 346 347 349 348 348 350 350 349 347 346 346 346 347 348 347 347 346 346 346
294 295 298 298 295 292 291 292 293 294 294 305 306 307 308 310 309 311 311 311 310 318 322 320 321 321 321 320 318 317 317 319 320 320 320 320 320 323 328 331 333 334 334 334 334 334 335 335 336 336 338 340 342 342 343 344 345 347 347 344 344 344 343 343 344 346 346 346 346 346 347 346 345 344 346 349 350 349 348 347 346 347 348 347 348 346 344
293 295 295 295 295 293 291 292 293 293 292 292 297 301 306 306 306 310 310 308 309 315 320 320 319 318 317 314 313 312 313 313 314 313 315 318 322 324 326 329 331 331 331 332 333 333 334 335 335 335 335 337 337 338 340 340 342 342 342 342 342 343 344 344 346 345 345 345 346 346 346 345 344 344 346 348 350 350 349 348 349 349 349 348 348 349 347
290 298 296 294 291 289 289 290 292 294 293 295 304 306 310 310 312 308 305 307 314 317 319 316 316 315 313 311 311 311 312 313 313 314 318 320 321 321 324 326 327 329 329 329 330 331 332 333 333 334 333 332 331 333 334 336 339 340 341 341 340 340 341 342 342 344 346 346 346 346 346 347 346 345 345 344 345 347 350 351 351 351 350 350 350 351 351
288 294 296 296 288 282 284 295 298 298 295 298 302 301 303 306 308 306 309 312 317 318 317 315 314 312 311 311 313 314 313 312 313 314 315 316 316 317 318 320 322 324 326 328 329 330 330 332 332 333 332 331 330 330 330 330 330 332 334 337 340 339 340 340 340 341 342 344 344 345 346 347 347 348 346 345 346 347 348 351 351 351 351 352 352 352 353
285 291 294 290 283 283 292 297 300 302 308 306 304 304 305 306 310 312 313 315 317 317 317 315 313 312 312 313 312 312 313 314 313 312 312 313 316 318 319 319 320 321 322 322 323 324 326 328 329 329 328 326 327 327 326 325 326 326 329 330 331 333 333 335 337 338 339 340 340 341 342 344 345 345 346 347 347 350 352 352 349 351 352 352 352 353 353
285 285 285 282 285 292 297 296 298 303 300 297 305 304 306 306 308 312 312 314 313 314 312 312 312 312 312 312 312 311 311 312 311 310 310 312 315 316 317 318 319 321 321 321 321 322 325 325 325 326 326 327 326 326 327 325 325 325 325 326 328 330 329 329 329 331 332 332 331 330 330 332 334 336 338 340 341 346 349 349 350 350 353 353 353 353 354
283 283 285 287 293 294 294 294 295 296 294 294 296 297 301 304 308 311 310 310 311 311 311 312 311 311 311 308 308 311 310 309 309 309 309 311 313 315 317 318 318 319 321 321 322 323 322 322 322 322 322 321 319 318 318 319 320 322 322 322 324 326 327 327 328 329 329 328 328 327 326 326 327 329 330 334 337 341 345 347 349 352 352 353 355 354 353
282 281 282 282 286 286 290 295 298 300 300 298 299 301 299 304 309 312 311 310 310 310 311 310 310 311 308 303 305 310 308 308 308 310 311 313 314 314 313 314 315 316 317 319 321 320 320 320 319 319 319 318 317 317 317 317 317 318 319 319 321 323 324 325 326 327 327 327 326 326 325 325 326 328 330 333 335 337 339 343 346 348 351 353 354 354 355
285 281 278 278 279 286 295 297 298 300 298 298 303 298 293 301 308 312 311 310 311 310 310 309 311 309 303 302 305 307 307 308 310 310 310 311 311 312 313 313 314 315 317 318 318 318 317 316 317 318 318 317 316 316 317 316 317 316 317 319 319 320 321 323 325 326 328 328 327 327 327 328 329 328 328 331 334 335 337 340 346 347 349 349 351 351 353
285 280 279 282 283 287 297 299 302 302 300 300 296 287 288 299 308 311 311 310 310 310 311 311 311 308 303 303 305 308 307 309 310 310 309 310 311 311 312 313 314 316 318 316 315 315 314 315 316 317 317 318 318 315 315 315 315 316 317 318 319 320 321 322 323 323 325 326 326 325 324 324 326 329 332 332 331 333 336 340 344 348 349 349 348 349 350
288 288 280 282 287 295 299 301 302 303 303 296 289 282 292 302 308 312 312 312 312 312 312 313 306 305 307 308 308 308 309 309 309 310 311 311 312 312 313 315 318 313 313 313 313 314 315 316 316 316 315 315 315 316 315 314 315 316 317 319 319 319 319 320 320 321 323 324 323 325 325 324 326 328 328 328 329 331 334 337 343 345 345 346 347 349 349
281 281 283 281 284 290 296 300 303 303 298 288 285 291 298 303 309 311 312 311 313 312 312 310 310 309 310 310 309 309 310 310 312 312 313 313 314 315 317 317 314 311 311 311 312 312 314 316 316 315 314 314 314 313 312 313 314 317 317 318 318 319 318 319 320 319 321 324 324 323 325 325 324 324 327 328 328 327 328 333 336 339 341 346 347 340 339
282 278 280 279 280 293 300 300 299 303 295 291 295 300 302 303 309 310 311 311 311 311 309 312 312 313 313 313 312 311 311 310 310 311 312 312 311 311 312 312 314 312 310 310 310 310 312 313 314 315 314 313 313 312 311 312 315 317 318 317 317 317 318 317 319 319 321 322 321 322 323 324 323 323 325 326 326 326 325 326 327 328 330 331 333 333 332
282 281 281 281 286 292 297 299 294 298 301 301 300 301 302 303 306 310 309 305 307 309 311 312 312 310 311 309 310 311 310 309 308 308 308 309 310 310 311 312 312 312 309 310 310 310 311 312 312 313 314 313 314 311 311 314 315 317 316 316 315 315 317 316 316 318 319 320 321 319 321 322 323 321 322 324 325 324 324 325 324 325 327 328 327 327 327
287 287 285 288 291 295 297 300 299 301 303 305 303 301 302 304 304 307 306 304 305 306 306 307 307 305 306 306 307 307 306 306 307 307 308 308 309 309 310 312 312 310 309 309 309 309 310 311 311 311 312 312 312 310 311 315 315 315 316 316 315 314 314 314 315 315 317 319 319 319 319 320 320 321 321 322 321 323 323 322 323 323 325 327 325 324 324
292 293 295 297 298 299 301 301 301 301 302 303 303 303 303 303 304 307 305 306 307 307 307 305 305 305 304 305 305 305 305 305 306 308 307 308 308 309 309 309 310 310 309 309 309 308 309 310 310 312 310 310 310 310 312 314 314 315 316 316 315 313 313 314 314 315 316 318 317 318 319 318 319 321 320 319 321 321 320 321 322 324 323 326 325 324 321
288 287 292 297 298 299 301 301 302 302 302 301 302 301 301 303 305 307 309 311 312 310 307 306 304 305 306 305 305 305 304 305 305 305 306 306 307 307 308 310 311 309 309 308 309 309 308 308 309 309 309 310 311 312 312 312 314 316 316 315 314 313 312 313 314 316 316 318 317 316 317 317 317 317 319 318 318 320 319 319 320 322 321 322 321 322 321
289 289 296 299 299 300 301 300 300 300 301 301 301 302 302 303 305 307 307 308 309 312 308 306 305 306 306 305 305 306 306 305 305 305 306 306 306 307 308 309 309 308 308 307 308 308 307 307 308 308 308 308 309 310 311 312 313 314 315 315 311 310 311 312 314 317 317 320 317 315 315 316 315 316 317 317 317 317 318 319 319 319 319 319 319 318 318
293 295 296 297 298 299 301 302 302 302 301 300 301 301 301 301 303 304 306 309 308 309 309 308 307 306 307 308 307 306 306 305 305 305 306 306 307 306 306 307 308 307 308 308 308 308 307 306 307 307 308 308 308 309 310 311 312 313 313 312 311 310 311 312 313 318 317 316 315 315 315 315 316 316 318 317 317 318 318 323 320 317 317 317 319 317 317
288 290 295 297 294 294 298 301 302 302 303 302 302 302 301 301 300 301 303 302 304 306 308 308 307 306 306 306 307 306 305 305 306 306 306 307 306 306 307 308 308 309 310 308 308 307 305 306 307 307 307 308 309 309 309 309 310 311 312 311 309 308 311 311 314 316 316 315 315 316 314 314 314 316 319 313 314 317 317 320 314 309 310 317 317 316 316
288 291 292 296 295 295 299 301 303 303 303 304 304 303 302 302 302 300 301 301 301 303 306 307 306 305 305 305 306 305 305 305 307 307 306 305 305 305 307 306 306 307 307 309 309 307 306 308 307 307 306 307 307 308 308 308 308 308 309 309 308 307 310 310 314 315 315 314 314 314 313 313 314 315 315 316 306 305 309 312 307 300 299 300 303 308 318
298 298 296 297 299 299 301 302 302 304 304 303 304 304 305 304 304 302 302 302 301 302 303 303 305 306 306 305 305 305 305 305 305 305 305 306 306 307 307 306 306 307 308 308 307 307 306 307 306 307 307 306 306 307 307 307 307 306 307 307 305 306 307 311 313 314 315 314 313 313 312 313 313 314 314 314 315 307 303 305 304 301 299 299 299 300 303
300 301 299 299 300 302 302 303 305 305 307 307 304 305 308 308 307 305 301 302 301 301 301 302 303 305 305 305 305 305 304 304 306 305 307 307 306 306 306 306 307 307 307 306 306 305 305 305 305 307 306 306 306 307 307 306 307 306 306 306 305 305 308 311 311 312 314 313 312 311 311 312 313 314 314 314 312 313 315 306 304 302 302 301 300 300 300
301 301 302 301 302 302 301 304 303 305 305 306 305 306 308 315 313 309 305 304 304 302 302 302 302 302 305 305 305 305 305 305 308 309 305 304 306 306 306 306 307 307 305 305 305 305 305 306 305 305 306 306 306 306 306 306 305 305 305 304 304 307 308 310 309 310 312 312 311 311 311 312 313 314 314 314 314 315 314 315 316 311 307 305 303 302 303
301 301 301 301 300 301 301 302 302 303 304 304 305 307 308 306 311 309 307 307 307 304 302 302 303 303 304 305 307 306 305 306 309 307 304 305 306 306 306 307 306 306 306 305 305 306 308 309 308 306 305 305 305 308 306 305 305 304 304 304 303 306 308 309 308 308 310 310 310 310 311 312 313 314 313 315 316 316 315 314 313 314 315 318 311 305 310
299 299 300 299 296 296 301 303 301 302 301 303 304 304 304 304 304 306 306 306 306 306 306 305 303 302 303 304 304 304 306 307 306 305 304 304 306 305 305 305 306 306 306 307 307 310 310 306 305 305 304 304 305 306 306 305 304 304 305 303 303 303 303 305 306 307 308 309 309 309 309 311 313 313 313 313 315 315 315 315 314 314 315 316 317 312 308
299 299 300 299 301 299 300 302 301 300 300 301 303 301 303 303 302 302 302 303 304 304 304 306 307 306 304 303 304 304 305 305 306 305 305 305 306 304 305 305 306 307 307 308 306 305 303 303 303 303 303 303 304 305 304 304 303 303 303 302 302 303 304 305 306 307 307 308 308 309 310 312 312 312 312 313 315 315 314 313 313 314 314 314 315 316 315
299 298 298 298 299 300 300 299 299 299 300 300 301 301 301 302 302 302 301 302 302 303 304 304 303 304 305 304 304 304 305 305 306 306 305 305 304 304 304 305 305 305 304 303 301 301 302 302 302 302 303 303 304 304 304 303 302 302 302 302 302 303 305 306 307 307 307 307 307 309 311 311 312 311 311 312 312 311 311 310 311 311 311 312 313 313 313
298 298 297 297 297 297 299 299 297 298 298 298 299 300 299 300 300 299 301 302 302 302 303 304 304 304 305 304 305 305 305 305 306 305 304 303 303 304 305 304 304 304 302 301 300 301 301 301 301 301 301 302 303 303 302 302 301 301 301 302 303 304 305 305 305 305 305 306 308 308 309 309 310 310 310 309 308 308 308 308 309 309 310 311 311 312 312
298 297 297 295 295 295 297 295 296 297 297 298 298 300 300 301 300 301 302 303 303 303 303 304 304 305 305 305 306 306 305 305 304 303 302 302 302 303 304 304 305 306 302 301 301 303 301 300 300 300 301 302 302 302 302 301 300 300 300 303 302 302 304 304 304 304 304 306 307 306 307 307 308 308 307 306 306 306 307 307 308 309 309 309 310 310 312
296 296 295 296 298 296 296 295 296 298 297 298 299 299 299 299 300 302 303 304 304 304 303 304 305 304 303 303 304 304 304 304 303 303 302 302 302 302 303 303 303 301 301 303 302 302 301 300 300 301 301 301 301 302 301 301 300 300 300 301 302 302 303 302 303 302 303 304 304 305 305 305 305 304 304 305 306 306 306 307 307 306 306 306 307 308 310
297 296 297 295 296 296 295 296 295 296 297 297 298 299 299 300 301 301 302 304 303 304 304 305 306 304 302 302 302 302 302 301 300 301 301 302 302 302 304 304 303 302 301 301 301 300 300 300 300 300 300 300 301 301 301 300 300 301 301 300 302 302 301 301 302 302 302 302 303 303 302 303 303 303 304 305 305 305 305 305 304 304 304 306 307 308 307
297 297 297 296 295 296 297 297 297 297 297 298 299 299 300 300 300 301 305 305 304 304 305 305 305 303 303 301 301 301 301 301 302 302 301 302 301 302 302 301 300 300 300 300 300 300 300 300 300 300 299 299 298 298 300 300 301 300 302 302 301 301 300 301 301 301 300 300 300 300 301 301 302 304 305 305 304 304 304 304 304 305 305 305 305 306 306
299 297 297 296 297 298 298 298 298 299 298 297 298 299 299 300 301 301 302 303 304 304 304 304 304 303 302 301 301 301 301 302 302 301 301 301 301 301 301 300 300 299 298 298 299 299 299 301 304 303 301 300 299 297 300 302 300 300 300 298 299 299 300 300 299 299 300 299 300 300 301 302 303 304 304 304 303 303 303 303 303 303 303 303 304 304 305
298 298 297 297 297 296 296 297 297 297 297 297 298 298 300 300 301 302 304 303 303 303 303 303 302 301 301 302 302 301 301 301 301 300 300 300 300 300 299 299 299 299 299 297 298 300 301 303 305 303 301 301 299 298 303 302 298 297 296 296 296 297 297 297 298 298 299 300 300 301 303 302 302 302 303 302 302 302 302 301 302 303 302 303 303 303 303
297 298 298 297 297 296 296 296 297 298 298 298 300 303 304 302 302 302 302 303 303 303 304 303 303 303 303 302 300 300 300 300 300 300 300 300 300 299 299 299 299 300 298 297 300 301 302 304 303 300 298 298 297 298 302 302 299 295 295 295 296 297 298 298 298 299 300 299 302 300 300 300 300 299 300 300 299 300 300 300 300 300 300 301 301 301 301
296 295 296 297 297 297 297 298 298 297 298 297 298 298 300 303 303 303 302 302 303 304 304 302 302 301 301 300 299 299 299 299 300 300 300 300 301 300 299 300 300 300 300 300 300 301 303 301 300 299 299 298 297 298 299 299 298 295 295 295 296 297 297 298 297 298 299 299 298 299 299 298 298 297 298 298 298 299 300 299 299 300 298 298 298 297 297
295 295 296 297 296 297 296 296 297 297 298 298 297 297 299 301 301 302 302 302 302 306 304 302 301 301 300 300 299 298 299 300 300 300 301 302 302 300 299 300 301 301 303 303 302 302 302 301 299 297 298 298 298 298 298 297 296 296 294 295 296 296 296 297 296 296 295 295 296 297 295 295 295 296 296 296 295 296 296 297 296 296 296 296 296 296 297
296 296 297 296 297 297 297 296 296 297 297 298 298 299 300 300 300 300 300 302 302 303 302 302 301 301 300 300 299 299 300 301 302 302 301 300 299 299 298 297 300 302 303 301 302 302 302 300 299 298 299 299 298 298 297 296 295 294 295 295 295 295 294 295 295 294 294 294 294 293 293 293 293 293 293 293 294 294 294 294 294 295 294 295 295 296 297
297 297 297 296 296 296 297 296 296 296 296 296 299 300 300 301 301 301 302 302 302 301 300 302 304 302 300 300 300 300 299 300 300 300 301 300 298 298 297 297 301 301 303 304 303 302 301 300 300 301 297 300 301 299 297 296 293 294 294 294 294 294 294 294 294 293 294 293 293 292 293 292 291 291 292 293 292 293 292 293 293 293 294 295 295 295 296
297 297 297 297 296 296 295 296 295 296 296 297 298 298 299 300 301 301 302 302 301 300 301 303 305 303 302 300 299 299 299 300 300 300 300 300 300 300 298 298 299 301 303 304 301 299 299 299 299 299 301 300 300 299 297 294 293 294 294 294 294 294 294 293 293 293 292 292 292 291 291 291 291 291 291 290 290 291 291 291 292 292 293 293 293 294 295
297 297 296 296 296 297 297 296 297 296 296 297 298 298 299 300 301 302 302 302 302 302 301 301 301 300 301 300 299 298 298 298 298 298 297 296 297 297 299 299 298 301 303 302 300 298 297 298 297 298 299 299 300 298 296 294 294 294 294 294 294 293 293 292 292 292 291 292 292 291 291 292 291 290 290 290 290 290 291 291 291 291 292 292 292 293 294
297 296 296 296 296 297 296 296 296 296 297 297 297 298 299 299 299 302 302 301 301 302 303 301 300 300 300 300 299 299 299 299 299 298 296 296 295 295 298 302 301 302 303 302 299 298 297 297 299 301 299 300 301 298 295 293 293 294 294 294 293 293 293 292 292 292 292 292 292 292 292 292 291 291 291 291 291 290 290 291 291 291 291 291 292 293 294
297 297 297 299 297 296 296 296 297 297 297 298 297 300 302 300 300 301 303 302 301 301 300 300 300 300 299 299 299 299 298 298 298 299 299 298 296 296 299 302 302 303 303 301 300 298 297 300 301 301 299 300 300 297 293 295 295 293 293 293 294 294 293 293 293 293 293 292 292 292 292 292 291 291 291 290 290 290 291 292 292 291 291 291 292 293 293
298 298 297 295 296 297 298 299 300 300 300 299 298 299 301 302 302 301 301 302 301 301 301 300 300 300 300 299 298 297 296 296 296 298 298 298 302 301 302 303 303 304 303 301 299 298 297 300 301 301 300 300 299 292 292 292 292 291 292 293 294 294 294 294 294 293 293 292 293 294 294 293 292 291 291 291 291 291 291 291 291 291 291 292 292 293 293
297 297 296 298 299 300 299 299 300 299 299 299 299 300 301 302 302 301 302 302 301 301 301 300 300 300 300 299 300 300 298 297 295 295 296 297 298 300 302 301 303 304 304 303 301 300 301 301 302 301 300 301 298 291 292 291 292 292 292 293 293 292 292 292 292 293 293 293 294 293 292 292 292 291 291 291 291 291 291 291 291 291 291 291 291 291 291
295 295 296 297 297 297 299 301 301 300 299 301 300 300 300 300 300 300 300 300 300 300 299 299 299 299 300 301 300 298 299 300 298 296 296 297 298 299 300 304 304 304 305 302 301 300 302 302 302 301 301 301 294 292 292 291 294 295 296 295 295 295 295 294 294 294 293 293 294 293 293 293 292 291 291 291 291 291 292 291 291 291 291 290 290 291 291
297 297 297 297 295 295 296 297 298 298 299 300 299 299 300 300 299 299 300 300 300 301 299 299 298 298 298 299 300 298 299 300 299 298 298 298 297 299 302 302 303 303 305 301 300 299 301 302 302 302 301 298 294 294 293 293 293 295 296 296 295 295 295 295 295 294 294 294 293 293 293 293 293 293 293 292 292 291 291 291 291 291 291 291 291 290 290
295 296 296 298 298 298 297 297 297 298 297 299 299 301 300 299 299 300 301 301 300 300 298 298 297 297 297 297 297 297 298 299 301 302 299 299 299 301 302 302 303 304 305 304 301 299 297 299 300 301 301 297 295 296 296 296 295 297 296 295 295 295 295 295 294 294 293 294 294 293 293 293 292 292 292 292 292 291 291 291 291 291 290 290 290 290 290
295 295 295 296 296 296 296 297 298 298 299 300 299 302 300 300 300 300 301 302 300 300 298 297 295 295 296 297 298 297 297 298 302 301 302 301 301 299 303 304 302 303 304 302 299 297 296 298 301 301 300 297 295 296 298 298 297 296 296 296 295 295 295 295 294 294 294 294 294 293 293 293 293 292 292 292 292 291 291 291 290 290 291 290 290 290 290
Wind_Speed
3 6 7 7 4 0 1 4 4 8 7 2 3 1 1 5 6 7 6 10 11 11 11 11 9 10 9 9 7 6 7 9 9 7 6 7 7 7 6 3 2 3 5 5 6 6 5 5 4 3 3 4 5 3 2 4 5 5 3 4 5 4 4 4 2 2 3 4 5 4 3 2 3 4 5 5 5 5 5 6 5 6 6 6 6 6 6
6 10 11 8 5 5 2 7 8 9 9 4 6 5 2 2 1 2 12 12 9 10 11 12 9 8 10 8 6 6 7 10 8 8 7 8 8 7 7 5 5 5 7 9 10 9 6 5 4 4 4 5 2 3 5 4 3 4 7 7 7 5 4 2 2 5 7 5 3 2 2 3 4 5 4 4 4 5 5 6 6 5 6 6 6 7 7
3 4 12 14 12 4 4 7 11 12 8 6 5 6 5 10 11 11 12 11 9 4 8 11 10 9 7 8 9 9 8 9 10 9 8 8 8 8 7 8 8 8 9 11 12 12 10 9 9 7 6 7 5 4 3 3 1 2 5 5 5 4 2 5 1 4 4 3 5 3 3 4 3 1 4 5 5 4 4 5 5 4 4 6 6 5 6
1 3 10 11 14 6 3 12 15 13 10 5 3 2 0 6 8 10 11 9 7 7 10 11 11 10 10 10 8 7 7 7 9 9 9 9 10 8 7 8 9 10 11 11 11 11 9 8 8 9 9 9 9 7 7 7 6 8 9 8 7 5 4 1 1 6 5 5 3 2 3 4 4 3 2 0 5 6 5 5 5 4 5 6 6 5 5
3 2 6 10 9 4 6 10 9 8 5 2 1 3 4 3 14 13 11 9 6 11 11 14 11 10 9 8 9 10 8 6 8 10 11 10 10 9 8 9 10 11 11 11 11 10 9 10 10 10 10 11 11 9 10 9 7 8 8 9 9 8 6 5 5 5 4 4 2 1 2 4 4 4 3 3 1 5 8 5 4 5 6 5 6 5 5
3 5 7 5 8 6 1 3 4 2 4 2 4 3 5 5 2 2 1 3 9 11 12 14 12 11 10 9 3 4 10 10 10 9 9 9 9 9 8 9 9 9 10 10 10 10 10 10 11 10 11 11 10 10 10 10 10 8 7 8 8 8 7 7 7 7 7 6 5 3 2 2 2 4 5 4 4 6 5 7 5 5 5 5 5 5 5
2 4 3 4 2 4 3 4 3 3 4 8 7 7 9 8 3 7 12 12 10 9 10 10 9 7 7 7 9 6 5 10 10 10 9 8 8 9 10 10 9 11 11 10 10 9 8 8 8 9 10 10 10 10 10 11 11 10 10 9 9 9 9 9 9 9 8 7 8 7 6 6 6 6 5 4 1 2 4 5 5 5 5 5 5 5 4
2 3 2 3 7 3 3 3 5 5 1 3 2 5 8 8 7 3 13 9 10 11 11 10 9 11 10 9 7 6 6 5 9 10 8 7 8 8 7 9 9 9 9 11 10 8 6 7 7 8 9 7 9 9 9 10 10 10 9 9 9 9 10 9 9 8 9 9 9 9 8 8 9 9 8 7 7 6 5 4 4 5 3 3 3 3 3
2 2 3 5 3 5 3 3 4 3 3 5 2 1 3 3 4 1 12 11 11 11 11 11 11 10 11 9 6 6 6 7 6 9 9 9 9 9 8 9 9 9 8 9 9 9 9 8 8 8 7 8 9 9 9 9 10 10 10 10 9 9 9 9 9 9 8 8 8 8 8 9 9 8 8 7 6 6 6 6 7 4 2 0 1 1 1
4 4 2 2 1 4 4 2 1 4 1 3 3 2 2 2 2 3 4 16 13 12 12 12 12 12 12 8 4 3 5 7 10 8 8 8 9 10 10 9 9 8 8 8 7 8 10 9 7 6 7 8 10 11 10 9 9 9 10 8 7 8 8 8 7 8 8 8 8 7 7 7 7 6 5 4 4 6 7 7 7 8 5 3 3 2 2
2 2 3 2 4 5 3 3 3 2 2 2 3 3 3 1 1 4 4 7 13 15 15 13 12 11 10 9 6 5 7 8 10 11 9 9 8 7 7 9 10 9 9 9 9 10 10 10 7 6 8 10 11 10 9 9 9 10 8 7 6 6 6 7 7 7 6 6 6 6 5 4 4 3 3 3 2 3 5 5 6 4 5 4 3 2 4
1 3 3 0 3 1 2 4 5 5 3 1 3 3 4 3 4 5 7 9 7 3 2 5 8 8 14 13 9 7 8 9 10 13 13 11 10 9 9 8 9 8 8 12 11 11 10 7 5 6 8 10 11 9 8 7 9 8 7 6 4 4 5 7 7 6 6 5 5 6 6 5 4 3 2 3 5 3 3 4 5 4 4 3 2 4 3
0 3 0 1 2 2 3 4 7 9 2 3 1 4 2 4 5 6 7 9 11 12 10 2 2 6 2 6 8 8 9 10 7 7 9 10 11 12 10 9 8 10 10 10 9 8 6 5 6 5 8 10 9 8 8 10 8 6 5 5 6 7 7 7 7 7 7 7 8 8 7 5 3 4 6 6 4 2 2 5 4 3 2 0 2 2 5
1 0 1 2 3 5 2 3 7 4 1 3 3 4 1 5 6 5 8 9 5 4 10 8 5 3 7 11 10 9 7 9 9 7 9 10 9 8 8 9 10 11 10 10 10 9 7 7 6 7 9 10 8 8 9 9 7 6 6 7 6 7 8 8 7 7 6 6 5 4 5 6 6 7 6 4 5 5 5 4 4 5 5 2 5 7 6
1 3 2 2 1 0 3 10 3 2 1 3 1 1 1 1 4 8 6 6 5 6 7 10 14 16 9 8 8 7 8 10 10 9 9 9 9 10 10 9 8 10 10 10 9 8 6 7 7 7 10 10 8 8 10 7 5 5 6 7 8 8 8 8 7 7 7 7 7 5 6 6 7 7 6 6 7 7 6 6 6 7 7 7 6 6 6
1 1 1 1 2 5 4 4 0 3 1 2 2 2 1 1 3 4 6 5 4 5 7 6 7 8 9 7 7 7 6 6 6 8 8 8 7 7 8 8 9 11 11 8 8 8 7 7 7 7 9 9 8 9 8 5 5 5 7 7 8 8 8 7 8 7 6 6 7 7 7 6 7 7 7 6 6 6 6 6 6 7 7 6 6 6 6
1 1 2 3 4 5 4 0 2 3 5 3 2 2 2 4 4 3 8 7 8 10 9 8 6 7 7 9 7 6 4 4 6 9 8 8 8 8 8 8 7 8 10 10 8 8 7 8 7 7 7 10 9 9 5 5 6 6 6 7 7 7 7 7 6 5 6 6 6 6 6 6 6 6 6 6 6 6 6 6 6 6 6 6 6 5 5
2 2 4 4 3 4 7 3 2 2 5 4 4 2 2 1 3 5 12 10 12 11 11 11 8 7 5 7 8 9 7 4 6 7 8 8 7 7 8 7 7 8 9 9 10 9 8 7 7 7 7 8 10 5 3 5 5 6 6 7 6 6 6 6 6 6 6 5 6 5 5 5 5 5 5 5 5 5 6 6 5 5 6 5 5 5 5
2 1 4 5 3 4 6 7 6 1 3 3 3 3 3 2 8 9 8 11 11 12 14 17 16 15 13 10 9 8 7 6 5 6 8 7 7 8 8 6 7 8 9 9 8 8 8 6 6 7 8 7 6 5 5 5 5 6 6 6 6 6 6 5 5 6 7 5 6 5 5 5 4 5 5 5 5 5 5 5 5 5 5 5 5 5 5
1 1 1 2 2 1 2 4 7 7 8 7 5 3 3 2 3 5 5 8 7 6 5 9 13 11 9 12 13 13 11 9 8 8 8 7 6 5 6 6 8 8 9 9 8 8 7 5 6 6 7 6 6 6 5 4 5 5 6 5 5 5 6 5 4 5 5 8 7 5 5 5 5 5 5 4 4 4 4 4 4 4 4 4 4 5 4
1 1 2 3 4 3 6 6 4 3 4 3 6 7 6 6 4 5 3 2 8 10 9 8 11 11 9 10 12 11 7 7 8 9 9 9 9 8 8 6 8 9 8 9 8 8 7 5 6 7 7 6 5 7 6 5 6 6 5 5 5 5 5 5 5 7 5 4 4 4 4 5 4 3 3 4 4 3 2 1 2 3 3 3 4 3 3
1 2 2 2 1 1 3 4 5 6 6 3 6 6 8 7 5 3 4 3 3 3 9 11 11 13 10 9 10 11 10 10 9 7 8 7 8 7 6 6 8 8 8 9 9 8 7 6 6 7 6 5 5 5 5 5 5 5 4 4 5 5 4 5 5 6 5 5 4 4 4 3 4 4 4 1 2 3 4 7 2 4 3 2 3 2 3
2 3 3 2 2 3 2 1 4 4 3 4 9 6 4 4 4 5 3 3 4 4 3 4 9 10 12 11 8 10 9 9 9 9 10 9 7 7 7 8 7 8 8 7 8 8 7 6 6 6 6 5 5 4 5 5 6 5 4 3 3 3 4 4 6 5 5 4 5 4 4 4 3 3 4 6 3 4 4 6 8 8 3 5 6 7 4
1 3 2 5 1 2 1 1 1 3 3 5 6 4 3 4 3 3 5 2 0 2 4 4 4 10 12 11 11 11 8 7 8 8 7 8 9 9 8 9 10 9 9 9 9 9 7 6 6 6 6 5 5 4 4 4 5 6 5 4 3 3 3 3 4 5 4 4 4 4 4 4 4 4 4 3 5 8 9 9 10 9 9 10 9 2 3
0 1 2 4 1 1 1 1 0 1 3 2 3 3 4 5 4 3 4 3 4 4 2 4 3 2 6 11 10 11 12 11 11 11 10 8 8 9 9 9 10 10 9 8 8 8 7 7 7 6 6 5 4 4 4 4 5 5 5 4 4 4 3 4 4 4 3 3 3 3 4 4 4 5 5 5 5 5 6 7 8 8 9 10 9 10 11
2 3 2 2 2 1 1 0 1 3 5 3 2 2 3 4 3 4 4 2 1 2 6 4 4 4 3 7 9 8 7 10 12 9 9 9 8 7 8 11 10 7 8 7 8 8 8 8 8 7 7 5 4 4 3 4 4 5 4 4 3 2 3 4 4 4 3 2 3 3 3 3 4 5 5 6 6 6 6 6 6 7 9 10 11 11 12
3 2 4 3 2 2 2 0 0 1 2 2 1 2 3 3 2 1 0 2 3 1 3 5 7 5 3 3 4 4 11 8 5 7 9 10 11 12 10 8 9 9 9 8 7 7 9 7 6 7 6 4 2 3 4 4 4 4 4 3 3 5 7 5 3 3 3 3 3 3 3 3 4 5 5 5 5 6 6 6 7 6 5 6 9 10 8
3 2 1 2 1 2 1 1 1 2 2 4 4 4 4 2 4 3 3 3 2 3 4 1 3 5 7 6 5 5 3 4 10 9 8 10 9 6 8 9 10 9 8 7 7 7 7 7 7 7 5 4 4 4 5 4 4 4 3 3 3 3 3 3 2 2 2 2 3 4 4 4 4 4 5 5 5 5 5 5 5 5 5 4 5 7 11
3 3 2 2 2 2 1 1 2 4 5 5 3 3 5 5 5 4 4 4 4 4 3 4 3 3 6 7 7 6 6 7 8 10 11 9 6 7 8 9 8 8 7 7 7 7 7 7 7 7 5 3 4 5 5 5 4 3 3 3 3 3 3 3 3 2 2 2 3 4 5 4 4 4 4 5 5 4 5 5 6 5 5 5 6 6 7
0 1 1 2 1 3 3 1 1 2 3 4 5 4 4 4 4 5 3 4 3 3 4 4 3 4 3 5 7 8 9 10 10 9 6 5 6 7 9 8 8 6 6 7 7 7 7 7 7 7 4 3 4 4 4 4 4 3 3 3 3 3 3 4 3 3 3 3 4 6 4 3 3 4 5 4 4 5 6 6 7 7 7 6 6 6 6
0 2 3 2 4 3 2 1 1 0 0 2 2 2 3 2 1 3 4 4 2 3 4 4 3 4 4 6 7 8 8 6 4 2 2 2 4 7 9 11 12 11 9 8 8 7 8 7 7 6 4 4 4 4 4 4 3 3 3 3 2 6 8 8 5 4 4 5 5 4 3 4 4 4 4 4 5 5 6 6 6 6 6 6 6 5 6
4 4 5 3 2 1 1 1 1 1 1 0 1 1 1 1 2 3 4 4 4 3 4 4 4 5 6 5 3 3 4 5 6 5 6 6 6 6 7 7 5 6 8 8 6 7 7 8 7 5 4 4 4 4 4 3 3 3 3 3 3 3 4 7 4 5 5 5 4 5 5 4 4 3 4 5 5 5 5 6 6 5 5 5 6 6 7
1 0 1 1 0 1 1 1 1 2 2 3 2 2 2 2 3 3 4 4 4 4 3 5 5 4 4 3 4 4 4 4 4 4 6 6 7 6 6 5 7 8 8 7 7 7 8 8 7 5 5 4 4 4 3 3 2 2 2 2 2 3 4 4 6 5 4 4 4 5 5 5 5 5 5 5 5 5 5 5 5 5 5 6 6 6 6
3 3 3 2 2 1 2 2 2 3 4 3 4 4 4 3 3 4 5 4 4 5 6 6 5 2 3 5 5 6 7 7 6 7 9 8 7 5 5 6 7 7 8 8 8 7 6 7 6 5 5 5 4 3 3 3 2 2 3 2 2 3 4 4 4 4 4 4 5 5 5 5 5 5 5 5 5 5 5 6 6 6 7 6 6 5 6
1 0 1 1 2 2 2 3 3 4 3 4 6 5 4 5 4 5 5 4 5 5 5 4 3 2 4 4 5 7 8 10 9 10 9 9 8 7 7 7 7 7 7 6 7 6 6 6 6 6 6 5 4 3 3 3 2 3 3 3 4 4 4 4 4 4 4 4 4 4 5 4 5 5 5 5 5 6 7 7 7 7 6 6 6 6 7
0 2 2 3 3 3 3 4 4 4 4 4 4 5 6 5 5 5 6 6 5 5 5 5 3 3 4 5 6 7 8 7 6 7 8 8 8 8 9 9 9 9 8 7 5 5 6 6 9 9 5 4 3 3 4 1 4 4 4 4 3 4 4 4 4 4 4 4 4 4 4 5 6 5 5 6 6 6 6 6 6 6 6 6 7 7 7
2 3 4 4 3 3 4 4 5 4 5 5 5 5 6 5 6 7 6 6 6 6 6 4 2 4 6 8 7 4 3 4 6 7 8 7 7 7 8 8 7 7 7 6 4 3 5 5 9 10 6 4 2 2 4 6 4 2 3 2 2 3 3 3 3 3 4 4 4 5 5 5 5 5 5 5 6 6 6 7 7 7 7 7 7 7 7
3 4 5 5 5 4 5 6 5 4 4 4 5 5 6 6 6 6 7 7 6 6 5 4 6 7 5 3 4 6 6 7 8 9 9 10 10 11 9 9 6 6 6 5 5 5 5 8 11 7 4 2 1 3 3 8 7 4 3 3 3 3 3 3 3 4 4 4 5 5 5 5 5 5 5 5 6 6 6 6 7 7 7 7 7 7 8
3 2 3 4 3 4 5 5 4 3 5 6 7 6 6 7 7 6 7 7 8 5 4 5 4 4 5 7 6 6 7 9 9 10 10 9 8 9 6 6 6 5 5 5 6 5 7 7 5 4 3 2 2 3 4 6 7 3 3 3 3 3 3 4 4 4 4 5 5 5 5 6 6 6 6 6 7 7 7 8 8 7 7 7 7 8 9
4 4 5 4 4 5 4 5 5 6 6 5 5 7 7 6 6 6 7 7 7 5 5 4 5 6 6 7 7 7 6 7 8 9 9 9 8 8 7 6 5 6 7 9 6 5 8 10 6 3 3 2 3 3 3 5 5 3 3 3 4 3 3 4 4 4 4 5 5 6 6 6 6 7 7 7 7 7 7 7 8 8 8 8 8 9 9
5 5 5 4 6 5 6 6 6 6 5 5 5 6 6 6 6 6 6 7 7 4 5 6 7 6 7 7 7 8 8 7 6 5 7 9 8 7 7 6 4 6 6 6 5 6 8 6 4 3 2 3 3 4 3 4 3 3 3 3 3 3 4 4 4 4 4 5 5 5 6 6 6 7 6 7 7 7 7 8 8 8 8 9 9 9 9
5 4 5 5 6 6 6 6 5 5 5 6 6 6 7 6 6 7 8 7 5 4 4 3 5 5 6 7 8 9 9 10 11 9 5 6 8 8 7 5 4 5 8 10 9 7 6 5 4 3 3 3 4 5 5 3 3 3 2 3 3 3 3 4 4 4 4 4 5 5 6 6 7 7 7 7 7 8 8 9 8 8 8 9 9 9 9
5 5 5 5 5 5 5 4 4 5 5 6 6 6 6 6 5 6 5 4 4 5 5 6 7 10 10 10 10 10 9 9 9 8 6 4 4 3 7 7 5 5 11 6 6 5 5 4 3 3 4 3 4 6 6 3 2 2 2 3 3 3 3 3 4 4 4 4 4 5 6 6 6 6 7 7 8 8 9 9 9 9 9 9 9 10 10
5 5 5 5 5 5 4 3 4 3 5 7 6 6 6 5 5 5 5 5 6 6 7 8 8 9 9 10 10 9 8 8 7 6 6 5 4 4 3 7 5 7 11 5 5 5 5 4 4 4 4 4 7 7 4 2 2 2 2 2 2 2 3 3 3 4 4 5 5 5 6 6 7 7 8 8 9 9 9 8 9 9 9 9 9 10 10
5 5 5 5 5 4 4 4 5 6 6 5 5 4 4 4 4 4 5 6 7 7 7 9 10 10 9 9 9 9 8 7 7 7 7 5 5 2 1 6 6 4 7 9 5 5 5 5 7 8 5 7 9 7 4 3 3 2 1 2 1 1 1 2 3 3 4 4 5 5 6 6 6 6 7 7 9 9 8 9 9 9 9 9 10 10 9
6 6 5 5 5 4 5 5 5 4 3 4 4 4 2 1 2 3 4 5 5 5 7 8 8 9 9 8 7 7 6 5 4 4 6 8 7 5 5 6 5 4 10 11 5 5 5 9 10 8 6 8 9 5 3 3 2 1 1 1 1 1 2 2 3 3 3 3 4 4 4 5 5 5 6 6 8 9 9 10 9 9 9 9 8 9 9
4 4 4 3 3 4 5 3 2 1 2 2 2 2 2 2 3 4 5 6 8 7 5 7 7 6 6 8 9 8 7 5 3 2 3 2 3 7 9 10 9 11 10 7 5 5 5 5 7 7 5 7 7 3 3 3 2 2 2 2 2 2 2 3 4 3 3 3 4 5 6 6 6 5 5 7 7 8 8 9 8 8 8 8 9 10 10
3 3 4 3 4 4 3 2 2 3 3 3 4 5 5 5 5 5 6 7 7 8 7 6 5 6 6 6 6 7 8 10 8 4 3 4 5 7 7 6 7 11 11 8 9 7 11 10 9 9 8 7 5 3 3 3 3 2 3 3 2 2 3 3 3 3 3 5 5 5 4 5 4 4 5 5 7 7 8 8 8 8 8 8 9 9 10
2 2 3 3 4 5 5 4 5 4 4 5 6 5 5 7 8 7 6 7 6 5 5 6 5 5 4 4 4 5 5 7 8 6 6 5 6 7 6 8 13 13 7 5 6 5 8 11 9 9 8 6 4 4 3 3 2 3 2 2 2 3 3 3 4 4 4 4 4 6 6 6 5 4 5 6 6 6 7 7 7 7 7 8 8 8 8
2 3 5 5 5 5 5 5 5 5 5 5 5 4 4 5 6 5 4 4 4 5 4 3 3 4 5 5 4 4 5 3 3 5 6 6 5 5 5 5 5 9 8 6 6 5 6 10 10 9 6 5 4 4 3 3 3 2 2 2 2 2 4 5 5 6 4 5 5 6 6 6 5 6 7 6 6 7 7 7 7 9 13 10 8 8 8
3 4 4 4 4 4 5 5 4 4 5 5 4 4 5 5 4 4 3 3 3 2 3 3 2 3 4 4 4 5 4 3 3 5 6 6 4 5 6 5 6 6 6 6 5 6 5 5 4 5 5 5 5 4 3 3 3 2 1 0 1 2 2 3 3 3 3 5 6 6 6 6 6 6 5 6 7 8 8 8 8 7 7 8 8 8 8
2 2 3 4 5 4 4 4 5 4 3 3 4 3 3 2 2 2 1 4 3 3 4 4 2 0 2 3 4 3 3 4 3 4 5 5 5 5 6 8 5 6 6 5 5 5 5 5 4 6 5 5 5 4 4 4 2 2 2 1 1 1 2 3 3 4 5 5 5 6 6 6 6 6 6 6 7 7 7 7 8 8 8 7 7 8 8
Wind_Direction
74 30 16 6 3 83 63 21 360 357 330 102 121 174 184 132 140 200 187 160 151 159 157 146 142 135 139 143 137 120 118 116 111 104 94 91 101 114 123 142 81 54 87 114 125 119 111 118 125 135 130 94 80 112 140 176 177 191 132 86 69 60 47 49 51 60 62 49 39 22 352 272 227 219 223 225 222 212 205 210 211 216 214 207 205 204 209
8 7 5 356 18 336 18 32 20 14 14 16 101 83 41 90 124 142 137 143 141 148 149 138 134 129 135 131 126 127 120 116 113 110 100 92 92 96 104 97 67 59 77 81 76 71 75 92 72 60 75 82 101 192 176 195 202 78 75 72 63 54 60 314 32 65 73 54 47 50 77 59 11 336 296 258 232 223 218 213 215 211 210 210 204 206 208
326 357 -0 356 359 14 12 15 19 13 11 20 51 96 92 79 68 105 129 128 129 109 122 114 117 123 126 132 133 127 126 124 119 113 104 90 81 76 82 94 92 79 72 72 72 69 69 66 59 42 51 83 80 57 53 100 13 67 126 131 120 130 178 246 235 78 69 189 212 183 153 135 132 96 337 322 288 251 233 227 219 214 203 201 201 196 198
287 348 14 352 344 350 37 21 7 2 360 12 332 32 167 122 132 129 124 138 148 152 129 116 123 132 137 133 127 121 114 110 111 107 98 88 86 83 79 79 73 65 62 63 68 68 59 58 60 64 55 52 54 44 47 58 49 67 81 99 111 127 200 203 121 150 196 230 227 170 166 148 150 169 176 230 299 280 256 233 223 211 217 219 220 210 200
217 278 24 359 352 17 16 2 344 324 291 237 315 356 32 122 143 143 166 194 146 144 136 129 139 135 131 129 131 122 107 104 108 102 99 106 101 92 85 78 75 71 69 68 69 69 69 64 65 63 67 65 58 53 47 38 41 45 77 89 92 90 87 83 71 109 141 141 131 128 112 128 140 156 165 157 139 310 286 255 215 210 217 219 221 217 214
234 306 356 357 38 33 269 268 317 279 272 321 73 28 352 7 46 194 170 94 130 137 135 137 140 137 144 140 114 114 132 126 108 95 99 94 96 101 96 90 84 79 74 70 69 70 74 76 73 74 65 63 62 61 60 52 41 23 32 66 71 81 76 68 68 65 67 76 77 51 43 61 113 136 153 170 174 181 231 282 261 217 211 215 216 214 211
248 330 6 48 3 249 239 298 323 17 65 78 86 75 46 4 350 116 104 118 129 119 120 124 123 117 110 101 110 108 116 119 114 116 106 102 106 108 101 92 89 88 86 76 67 55 47 53 68 73 74 75 74 62 63 63 53 42 21 32 48 51 55 51 53 55 57 56 54 44 40 45 47 34 23 27 9 277 227 209 228 238 211 207 213 212 211
66 48 52 118 226 234 293 292 1 355 44 23 46 28 22 7 350 104 117 117 117 116 113 113 121 116 105 81 57 69 62 77 119 115 110 110 105 97 96 96 86 87 94 100 95 79 53 46 49 68 78 85 81 74 59 59 60 57 48 42 37 41 51 51 53 53 62 60 55 47 40 40 44 42 30 23 5 338 316 288 248 247 239 204 204 210 215
169 194 181 209 319 331 351 27 16 25 346 323 11 85 294 324 328 351 129 122 121 119 124 126 122 116 101 83 54 35 73 86 80 104 110 111 105 104 93 91 88 87 86 91 94 94 90 82 72 61 71 72 74 68 58 55 58 56 56 47 43 42 45 43 44 45 53 63 59 55 49 44 34 32 22 15 5 344 331 312 302 278 274 231 150 180 184
114 130 53 6 45 210 268 210 254 256 234 247 207 110 313 325 349 82 146 136 137 134 139 138 135 124 104 103 99 66 80 97 98 81 90 93 100 100 101 93 90 87 84 79 72 80 81 65 57 68 70 77 74 69 64 55 56 56 56 52 46 49 48 44 44 48 45 43 50 54 50 51 42 23 10 6 3 352 339 327 312 315 320 353 357 9 2
50 47 116 201 159 244 206 281 261 249 209 198 169 66 317 268 147 105 112 141 144 150 150 152 147 133 132 154 165 163 130 114 110 105 93 89 80 80 88 104 101 91 85 81 76 65 61 56 37 51 66 68 66 62 58 54 52 47 42 38 39 51 53 48 38 36 44 53 48 47 50 41 39 25 347 345 354 0 329 319 309 319 332 352 339 2 11
110 133 90 212 208 107 355 296 315 317 354 92 74 19 286 228 180 136 133 140 129 79 87 145 155 143 153 169 174 163 140 129 128 125 124 113 103 91 87 73 83 85 86 83 69 65 62 56 47 61 68 67 64 60 52 52 49 42 29 20 17 42 54 62 57 49 38 36 42 49 43 40 38 44 0 12 11 13 325 298 291 288 285 275 342 39 46
13 90 268 322 312 275 266 278 314 318 307 109 327 219 238 202 166 150 139 145 138 139 132 352 16 319 346 102 121 131 133 123 117 109 113 117 121 123 113 106 99 86 79 80 82 78 75 73 62 64 73 69 62 58 53 49 37 21 4 11 30 35 40 44 46 47 46 38 29 30 29 34 27 36 35 21 16 56 223 248 245 258 272 353 90 49 48
21 232 111 216 244 241 268 284 283 277 50 153 213 237 237 151 159 157 148 139 131 177 149 133 127 107 100 121 127 124 112 116 112 108 100 95 82 76 92 102 100 97 92 89 85 71 60 65 65 67 72 70 65 60 55 42 15 345 10 24 37 43 39 34 32 30 30 31 40 34 26 28 34 39 25 18 26 32 25 17 35 64 35 55 83 64 50
72 40 62 22 94 279 57 324 0 22 37 236 217 221 339 250 164 144 138 131 138 125 127 135 133 128 133 124 111 121 129 128 129 126 117 110 112 113 106 89 80 92 88 81 74 74 61 55 56 68 76 72 59 54 52 26 360 18 25 27 31 37 38 36 28 24 21 20 21 17 23 25 31 31 20 19 21 24 24 27 35 39 38 35 45 50 43
141 72 123 173 214 262 322 16 107 297 244 278 206 142 108 332 157 127 112 61 81 93 108 107 84 80 109 115 133 132 113 105 97 96 93 91 85 81 78 92 103 95 93 82 75 59 55 57 59 63 79 78 64 57 36 356 21 38 39 36 35 32 29 27 26 20 18 19 19 19 17 18 27 29 22 17 21 21 16 23 25 34 32 29 38 43 31
108 211 210 251 259 255 280 237 246 270 301 309 217 171 180 156 146 119 97 99 86 92 84 60 50 87 107 118 110 106 80 88 109 106 105 107 107 99 98 94 90 92 100 98 90 72 59 62 60 64 73 84 73 60 12 10 25 38 41 45 42 29 19 15 16 10 16 29 24 16 8 10 21 17 19 14 22 14 17 19 21 25 17 20 26 21 22
261 245 223 279 313 337 339 317 262 294 338 349 25 332 113 34 85 119 126 121 109 104 101 94 60 43 32 77 80 84 69 60 78 92 95 89 88 92 94 92 88 94 92 89 88 84 68 66 70 69 65 74 77 66 13 27 26 35 41 42 42 32 19 8 -0 357 9 23 32 21 14 8 11 12 18 15 17 14 18 18 16 18 8 13 14 7 10
77 211 326 15 336 320 355 337 327 351 36 350 340 11 335 117 117 120 144 129 142 157 152 147 151 150 145 115 83 68 71 86 85 101 107 112 120 125 118 127 117 103 100 96 93 91 86 66 78 73 72 65 77 73 56 35 31 34 46 44 35 25 17 5 357 356 1 5 15 7 14 8 10 11 11 19 19 24 21 14 12 10 2 7 6 2 3
101 235 279 282 280 292 328 9 17 353 337 346 9 3 24 43 91 122 156 145 129 132 142 142 135 137 143 138 142 143 148 150 142 138 137 139 132 137 134 125 109 106 107 113 109 102 96 88 83 83 77 76 67 62 55 49 49 52 48 42 36 16 11 1 5 8 4 6 10 354 359 6 8 360 8 13 18 17 10 12 10 1 357 359 356 357 338
287 318 282 283 295 341 13 2 18 352 328 332 18 23 30 30 61 95 96 101 154 154 142 142 137 139 154 153 149 144 148 151 150 149 157 161 157 153 142 136 129 130 132 122 120 113 116 121 108 94 91 89 84 80 66 47 53 56 53 43 34 18 11 8 9 16 9 6 359 357 349 353 356 330 343 353 353 339 314 94 15 345 349 326 351 341 320
322 186 212 138 114 266 323 352 347 340 342 25 50 35 36 37 39 29 97 80 64 122 152 152 150 149 153 162 152 153 156 158 164 161 160 160 152 151 142 136 136 132 127 127 126 125 134 137 120 112 105 93 84 85 84 76 70 66 49 47 40 14 7 10 10 16 8 4 356 -0 0 353 351 339 10 30 282 332 337 338 53 192 260 315 324 305 300
237 254 238 196 154 150 215 228 330 341 335 53 62 40 37 42 63 66 61 80 100 135 170 157 148 151 160 168 165 155 168 170 170 168 162 160 163 153 152 140 138 131 137 134 128 130 146 144 125 124 120 119 105 85 89 88 90 83 58 49 37 20 12 -0 14 21 13 7 10 3 359 356 344 351 332 340 318 274 269 299 320 327 266 218 211 243 272
272 235 215 176 138 175 231 260 289 342 357 74 67 47 46 48 25 100 99 86 131 207 183 206 206 175 167 171 166 171 168 167 168 171 178 172 163 161 163 153 149 146 148 146 144 146 152 136 128 122 114 113 109 108 99 100 94 91 80 66 39 2 344 334 6 17 21 9 16 6 3 353 352 345 342 339 328 329 328 327 330 327 327 331 334 351 202
231 212 164 177 204 112 356 113 222 323 347 57 83 55 46 37 31 51 97 117 141 141 226 240 245 260 187 172 177 168 172 184 185 176 174 168 169 165 164 156 158 160 160 154 147 145 142 137 132 124 116 114 113 107 104 101 94 87 78 68 50 356 330 356 1 0 20 19 13 7 357 349 343 350 350 345 333 329 325 324 324 321 325 330 337 337 340
179 107 107 126 106 58 310 287 345 9 353 6 52 5 356 35 30 38 24 82 67 183 165 194 262 281 233 202 189 187 179 182 180 168 159 170 171 165 170 172 168 155 148 147 146 145 144 141 136 130 122 131 121 115 107 96 87 88 79 71 47 358 357 14 354 340 344 5 1 354 334 322 336 346 343 341 337 332 334 340 343 340 338 340 342 345 342
54 94 103 41 2 336 21 106 0 334 339 344 359 329 341 348 35 102 288 342 348 155 197 214 193 188 194 244 269 225 192 184 164 170 178 177 180 185 176 160 154 151 146 144 145 151 145 139 129 123 118 114 99 112 104 94 83 67 60 39 24 10 19 27 11 341 336 349 339 326 325 326 329 337 335 331 328 330 337 340 342 341 339 326 331 342 332
91 23 158 180 219 233 253 276 261 315 21 24 -0 357 327 10 34 33 11 356 352 335 331 325 178 168 186 203 210 236 261 184 183 182 187 196 193 158 155 155 151 149 146 146 151 146 131 123 123 114 108 96 101 109 100 97 81 59 45 24 8 355 341 355 345 313 308 309 308 306 297 300 314 329 329 322 319 317 326 339 337 334 334 329 319 312 321
19 21 24 87 163 201 233 11 30 15 356 347 4 31 23 24 6 14 358 340 323 349 332 308 287 241 214 196 179 206 213 203 201 194 200 198 159 149 148 145 143 142 142 139 134 126 124 122 120 112 100 78 92 93 101 93 81 63 28 17 348 336 327 314 309 294 301 287 286 281 295 295 299 309 311 312 310 315 336 337 333 328 331 332 329 335 335
290 316 60 70 95 163 113 51 329 326 3 353 20 12 18 39 13 343 326 325 349 341 299 298 298 266 228 207 198 191 201 210 213 217 208 170 154 147 143 134 119 113 124 134 144 139 131 128 121 114 107 78 81 86 85 80 69 60 36 352 323 309 287 283 282 312 310 302 286 297 286 294 300 296 299 301 318 338 336 332 328 327 326 328 332 335 338
22 47 67 42 43 49 96 132 146 223 32 2 7 16 21 56 43 332 313 314 321 299 303 313 284 271 253 226 223 210 196 193 199 182 139 145 153 155 153 153 153 170 168 163 152 139 128 118 111 112 118 101 81 79 67 61 52 36 33 355 322 334 329 329 344 343 328 312 305 308 315 322 301 298 314 326 331 326 328 323 317 315 314 317 320 329 336
100 61 47 32 40 65 48 13 29 12 329 149 44 35 290 335 303 293 298 306 291 288 299 301 288 255 239 239 214 208 209 189 158 145 147 153 169 177 177 174 156 137 135 140 136 130 122 118 113 125 120 100 86 64 62 52 45 31 4 356 351 323 308 334 345 337 328 320 325 329 323 322 325 332 338 326 320 320 314 307 309 311 317 326 327 329 332
119 338 322 267 247 10 318 292 238 282 294 300 276 259 258 238 237 252 256 264 293 300 283 271 267 256 244 217 199 187 167 146 130 125 142 154 163 171 167 140 126 131 131 133 133 132 129 126 130 130 107 90 70 58 47 42 30 6 335 336 321 326 340 342 333 334 327 329 328 325 336 335 332 329 322 319 316 315 314 321 328 330 330 323 318 320 327
170 198 220 210 190 223 238 280 260 283 298 288 279 291 287 262 235 251 268 280 278 276 271 265 272 230 166 180 173 162 145 134 139 164 172 169 164 147 128 122 122 115 107 116 114 112 114 120 122 110 92 75 57 47 19 350 331 304 320 310 323 325 340 333 336 329 328 328 330 334 333 324 322 318 317 319 324 325 330 330 323 318 312 309 310 322 335
166 209 201 223 214 201 186 208 245 257 267 294 306 298 273 277 277 265 266 270 269 259 270 277 268 202 168 166 168 172 174 182 183 175 172 161 152 140 128 109 98 97 92 87 112 121 126 121 112 103 93 79 64 26 327 303 306 322 346 354 345 331 334 329 331 329 330 325 325 319 318 317 312 312 316 323 320 321 318 316 316 316 315 319 324 326 323
191 292 270 256 233 222 221 225 227 232 235 239 249 266 281 276 275 279 277 269 265 281 279 275 261 182 181 180 187 193 200 198 171 158 154 151 144 140 138 134 132 126 118 105 98 119 125 130 130 118 111 97 59 359 301 19 57 46 26 14 347 338 325 325 326 323 316 317 316 316 312 310 312 315 318 316 318 318 320 321 322 319 317 318 317 316 317
208 219 245 253 257 225 221 221 220 214 222 226 237 248 258 263 260 263 264 270 273 268 264 254 217 199 213 210 204 188 151 135 141 145 135 124 121 115 113 114 115 123 126 123 145 132 134 148 124 106 98 73 64 340 307 70 82 44 20 8 338 333 321 317 315 322 321 321 317 315 318 321 319 317 321 325 325 326 323 318 317 319 320 318 319 323 325
222 209 224 226 232 223 224 229 222 215 228 248 244 238 240 246 250 252 254 258 262 260 248 226 222 224 213 170 159 161 149 142 138 137 136 138 137 126 125 125 134 132 133 142 143 122 124 120 112 102 104 103 10 327 18 58 53 54 17 8 346 327 337 350 342 334 332 325 329 329 331 338 341 339 337 332 325 320 319 321 322 317 314 317 321 325 328
296 251 227 239 236 240 249 263 252 237 225 237 251 256 256 253 253 249 251 249 251 251 239 233 213 181 171 168 168 158 156 154 148 145 144 140 138 129 127 137 142 136 128 125 121 123 115 111 105 113 115 103 66 56 52 54 57 48 17 356 340 337 0 354 355 347 346 344 343 331 352 355 345 336 328 326 323 325 324 319 315 316 320 320 322 321 318
261 270 270 268 264 255 249 253 255 253 250 237 236 252 260 267 265 254 250 253 255 232 220 199 184 190 184 176 163 155 148 145 145 143 138 130 115 110 103 80 95 112 122 125 119 117 126 128 119 118 116 115 123 94 78 69 67 48 23 358 346 11 8 6 359 356 350 347 341 347 351 345 340 336 331 328 326 322 323 324 323 319 316 315 313 309 309
263 270 271 261 260 263 257 258 260 258 257 264 255 253 256 253 258 260 255 251 253 226 203 194 193 195 183 166 144 133 123 109 95 93 112 116 115 121 125 125 125 119 120 123 126 132 132 130 135 138 178 141 133 118 101 84 82 57 41 14 15 21 13 8 4 5 356 355 352 348 341 342 338 335 329 326 325 325 324 321 319 317 314 310 309 309 310
271 264 260 258 254 250 249 245 248 265 266 252 253 257 260 255 245 243 247 249 237 194 182 186 194 168 137 124 121 121 123 122 120 122 138 135 140 134 126 132 145 132 146 143 142 134 129 139 156 158 179 169 159 137 121 108 92 85 60 49 36 29 18 14 7 -0 359 356 347 344 346 339 334 330 332 333 333 330 326 322 317 315 313 315 316 316 314
301 294 283 275 269 263 253 246 236 240 254 261 258 252 251 250 242 243 247 229 184 160 151 142 144 133 131 133 133 129 129 130 132 133 113 66 68 86 139 145 146 158 149 125 124 122 138 145 152 183 195 175 147 135 115 114 99 90 74 62 44 34 22 16 9 4 355 348 348 349 343 337 339 340 336 334 330 327 322 321 320 320 320 317 315 317 318
297 292 280 272 268 265 262 259 264 262 260 267 257 242 240 241 236 222 197 178 168 167 153 145 137 134 134 136 131 128 130 130 130 126 119 106 79 39 87 140 150 160 153 135 134 140 160 173 185 173 147 150 145 132 127 137 136 124 107 85 61 42 24 15 5 2 357 350 348 344 336 336 339 335 333 330 328 325 323 322 320 318 316 318 318 315 312
297 296 297 286 277 288 288 282 267 264 263 268 275 260 244 243 236 215 180 175 177 163 148 145 139 135 132 132 133 140 144 147 145 138 125 127 129 151 209 150 157 168 151 156 157 164 182 187 200 189 171 161 156 146 138 151 170 178 157 127 112 69 3 356 353 346 342 342 337 334 332 336 335 333 334 326 325 324 322 319 319 321 322 318 315 312 313
313 316 317 324 326 310 287 277 274 277 287 296 309 300 292 264 232 199 180 156 131 123 125 118 119 132 136 126 108 99 95 97 98 115 143 151 161 168 170 166 166 165 165 165 171 178 194 199 202 184 172 167 152 144 160 173 184 176 133 177 251 249 293 288 300 303 305 298 304 306 315 324 327 332 326 323 322 321 318 320 321 320 315 313 311 315 317
327 328 335 319 309 326 331 325 330 21 40 10 10 41 62 86 89 90 94 99 99 90 93 111 119 115 117 122 129 128 121 104 73 29 55 59 113 139 175 179 179 179 172 170 180 186 192 207 200 183 186 171 145 135 162 174 188 201 227 230 235 253 253 253 273 261 263 275 286 304 312 313 314 310 317 324 318 319 320 318 316 320 322 320 320 321 320
333 342 335 356 7 355 353 356 28 43 33 50 72 71 66 65 72 80 92 96 108 115 114 112 119 114 115 121 135 144 146 142 150 193 187 186 171 161 169 174 181 185 180 181 189 199 200 202 200 186 193 179 144 152 173 190 211 227 214 247 257 245 241 258 252 243 253 271 291 290 276 277 279 289 306 313 318 322 315 315 322 325 323 324 323 322 321
353 17 20 28 27 23 21 38 48 61 59 67 75 72 74 71 66 52 54 67 75 77 95 107 109 111 113 127 155 156 168 166 157 161 173 168 160 169 178 184 189 188 180 176 192 204 204 203 199 190 193 161 149 172 176 196 205 232 237 259 265 295 310 291 282 271 263 261 280 306 310 311 309 293 296 309 317 312 317 321 320 319 323 326 326 325 323
25 52 38 37 44 44 41 51 46 37 48 58 64 66 72 86 82 76 65 56 68 83 67 80 112 141 145 164 169 171 183 155 90 103 131 151 163 170 176 176 189 199 189 183 193 200 211 206 203 199 191 156 170 169 185 196 219 223 262 314 346 339 324 333 348 357 349 335 322 316 318 322 314 309 316 315 315 324 325 318 316 323 329 328 325 325 325
44 50 44 66 76 79 76 81 79 75 63 68 72 71 67 67 77 80 75 81 58 97 97 100 103 141 152 147 158 173 158 134 120 134 134 154 160 177 181 181 200 208 196 189 197 198 189 201 188 192 177 165 177 175 184 206 218 244 269 356 311 325 321 328 335 334 335 335 328 328 328 327 322 309 303 313 319 323 321 319 319 321 319 319 319 315 313
103 90 85 102 96 88 86 85 89 86 73 61 50 65 62 45 36 44 55 158 144 139 144 134 105 19 132 156 163 154 149 144 137 144 155 156 170 179 192 193 197 215 207 202 205 190 180 188 193 186 174 173 175 187 203 213 195 205 219 253 277 272 312 324 324 326 327 338 343 339 333 330 319 317 323 321 319 321 322 321 318 317 316 313 312 310 309